Showing default

NUSAT-26 (M SOMERVILLE), 52184

Orbit data source: Space-Track

NUSAT-26 (M SOMERVILLE), 52184 is a payload satellite owned by URUGUS S.A. (AR) in SSO that was launched on Fri, 01 Apr 2022 UTC via an FALCON 9 launch vehicle from the Air Force Eastern Test Range (AFETR). Payload-class satellites include a variety of spacecraft equipped with specific instruments for various scientific and technological missions. These include communications satellites like Starlink; space stations such as the ISS; scientific satellites like the Hubble; Earth observation satellites from companies like Planet Labs, Umbra, and HawkEye 360; GPS; miniature CubeSats for education and research; and military/defense satellites.

Loading next visibility...
Identifier
52184, 2022-033AD
Orbit
SSO
Country
Flag of UnknownUnknown / ARGN
Related business
Manufacturer
URUGUS S.A.
Mission
Operational Commercial Imaging
Bus & Motor
NEWSAT IV, Unknown motor
Mass
41.5 kg wet, 38.5 kg dry
Launch date (UTC)
2022-04-01 (4 years ago)
Launch vehicle
FALCON 9
Launch site
Air Force Eastern Test Range (AFETR)
Object type
Payload
Rocket body
Debris
Shape & HBR
Box, 1.0 m
Radar Cross Section
0.542 m², Medium (>0.1 m² and < 1m²)

Expand to show TLE details & history
Last TLE update: 13 hours ago

TLE from 13 hours ago
0 NUSAT-26 (M SOMERVILLE)
1 52184U 22033AD  25340.59088398  .00027972  00000-0  84023-3 0  9991
2 52184  97.2565  57.0533 0006039 209.8945 150.1954 15.34372145 75095
Epoch: 2025-12-06T14:10Z
TLE epoch observation values (Epoch: 2025-12-06T14:10:52.375Z)
Latitude
-0.00007°
Longitude
128.71865°
Altitude
469.486 km
Speed
7.629 km/s
True Right ascension
03h 48m 12s
True Declination
0° 00' 00"
Sunlit
Object was in full shadow at epoch
Visualization orbit readout
Latitude
Unknown
Longitude
Unknown
Altitude
Unknown
Speed
Unknown
Apparent Right ascension
Unknown
Apparent Declination
Unknown
Sunlit
N/A
Visualization observer readout
Local Sidereal Time
01:23:40
Azimuth
Unknown
Elevation
Unknown
Doppler factor
Unknown
Orbital elements
Apogee altitude
463.856 km
Perigee altitude
455.597 km
Semi-major axis
6,837.863 km
Eccentricity
0.0006
Inclination
97.2565°
RAAN
57.0533°
Arg. of periapsis
209.8945°
True anomaly
150.22977°
Mean anomaly
150.1954°
Eccentric anomaly
150.21259°
Mean motion
3.83851 °/min
Orbital period
93.79 mins
BSTAR
0.00084023
Loading maneuver chart data...
Computing Atmospheric mass density...

Documentation

Showing up to 5 results
|